Eastsound, WA

6:51 PM PDT on March 26, 2017 (GMT -0700)
Orcas Island

Weather History for KORS - April, 2013

Change the Weather History Date:

Tuesday, April 23, 2013

  Actual Average (KFHR) Record (KFHR)
Temperature  
Mean Temperature 45 °F -  
Max Temperature 53 °F 56 °F 66 °F (1999)
Min Temperature 37 °F 38 °F 34 °F (2002)
Degree Days  
Heating Degree Days 20    
Moisture  
Dew Point 38 °F    
Average Humidity 73    
Maximum Humidity 87    
Minimum Humidity 58    
Precipitation  
Precipitation 0.00 in - - ()
Sea Level Pressure  
Sea Level Pressure 30.32 in    
Wind  
Wind Speed 2 mph (NW)    
Max Wind Speed 10 mph    
Max Gust Speed -    
Visibility 10 miles    
Events      
Averages and records for this station are not official NWS values.
T = Trace of Precipitation, MM = Missing Value Source: NWS Daily Summary

Daily Weather History Graph

Daily Weather History Graph

Search for Another Location

Airport or City:

Trip Planner

Search our weather history database for the weather conditions in past years. The results will help you decide how hot, cold, wet, or windy it might be!

Date:

Astronomy

Apr. 23, 2013 Rise Set
Actual Time 6:05 AM PDT 8:15 PM PDT
Civil Twilight 5:30 AM PDT 8:49 PM PDT
Nautical Twilight 4:48 AM PDT 9:32 PM PDT
Astronomical Twilight 4:00 AM PDT 10:21 PM PDT
Moon 6:08 PM PDT (4/23) 4:47 AM PDT (4/23)
Length of Visible Light 15h 19m
Length of Day
14h 10m
Waxing Gibbous, 94% of the Moon is Illuminated
Apr 23
Waxing Gibbous
Apr 25
Full
May 2
Last Quarter
May 9
New
May 17
First Quarter

Hourly Weather History & Observations

Time (PDT) Temp. Windchill Dew Point Humidity Pressure Visibility Wind Dir Wind Speed Gust Speed Precip Events Conditions
12:15 AM 39.2 °F - 32.0 °F 75% 30.42 in 10.0 mi Calm Calm - N/A   Clear
12:35 AM 39.2 °F - 32.0 °F 75% 30.41 in 10.0 mi North - - N/A   Clear
12:55 AM 39.2 °F 37.0 °F 32.0 °F 75% 30.41 in 10.0 mi South 3.5 mph - N/A   Clear
1:15 AM 39.2 °F - 32.0 °F 75% 30.41 in 10.0 mi Calm Calm - N/A   Clear
1:35 AM 37.4 °F - 32.0 °F 81% 30.41 in 10.0 mi Calm Calm - N/A   Clear
1:55 AM 37.4 °F - 32.0 °F 81% 30.40 in 10.0 mi Calm Calm - N/A   Clear
2:15 AM 37.4 °F - 32.0 °F 81% 30.39 in 10.0 mi Calm Calm - N/A   Clear
2:35 AM 37.4 °F - 32.0 °F 81% 30.38 in 10.0 mi Calm Calm - N/A   Clear
2:55 AM 39.2 °F - 32.0 °F 75% 30.38 in 10.0 mi Calm Calm - N/A   Clear
3:15 AM 39.2 °F - 32.0 °F 75% 30.37 in 10.0 mi North - - N/A   Clear
3:35 AM 37.4 °F - 32.0 °F 81% 30.37 in 10.0 mi Calm Calm - N/A   Clear
3:55 AM 37.4 °F - 32.0 °F 81% 30.37 in 10.0 mi Calm Calm - N/A   Clear
4:15 AM 37.4 °F - 32.0 °F 81% 30.36 in 10.0 mi Calm Calm - N/A   Clear
4:35 AM 37.4 °F - 32.0 °F 81% 30.37 in 10.0 mi Calm Calm - N/A   Clear
4:55 AM 39.2 °F - 32.0 °F 75% 30.36 in 10.0 mi North - - N/A   Clear
5:15 AM 41.0 °F - 33.8 °F 76% 30.35 in 10.0 mi Calm Calm - N/A   Clear
5:55 AM 41.0 °F - 35.6 °F 81% 30.36 in 10.0 mi Calm Calm - N/A   Clear
6:15 AM 41.0 °F - 35.6 °F 81% 30.35 in 10.0 mi North - - N/A   Clear
6:35 AM 41.0 °F - 35.6 °F 81% 30.34 in 10.0 mi North - - N/A   Partly Cloudy
6:55 AM 42.8 °F - 37.4 °F 81% 30.33 in 10.0 mi North - - N/A   Mostly Cloudy
7:15 AM 42.8 °F - 35.6 °F 76% 30.32 in 10.0 mi Calm Calm - N/A   Mostly Cloudy
7:35 AM 44.6 °F 42.2 °F 35.6 °F 71% 30.32 in 10.0 mi South 4.6 mph - N/A   Mostly Cloudy
7:55 AM 46.4 °F 45.2 °F 35.6 °F 66% 30.32 in 10.0 mi South 3.5 mph - N/A   Mostly Cloudy
8:15 AM 46.4 °F 44.3 °F 35.6 °F 66% 30.32 in 10.0 mi South 4.6 mph - N/A   Partly Cloudy
8:35 AM 46.4 °F 44.3 °F 37.4 °F 71% 30.32 in 10.0 mi SSW 4.6 mph - N/A   Clear
8:55 AM 46.4 °F 44.3 °F 37.4 °F 71% 30.32 in 10.0 mi South 4.6 mph - N/A   Partly Cloudy
9:15 AM 48.2 °F - 39.2 °F 71% 30.32 in 10.0 mi South 4.6 mph - N/A   Partly Cloudy
9:35 AM 48.2 °F - 39.2 °F 71% 30.32 in 10.0 mi South 5.8 mph - N/A   Clear
9:55 AM 48.2 °F - 39.2 °F 71% 30.32 in 10.0 mi North - - N/A   Partly Cloudy
10:15 AM 50.0 °F - 39.2 °F 66% 30.32 in 10.0 mi South 4.6 mph - N/A   Partly Cloudy
10:35 AM 50.0 °F - 39.2 °F 66% 30.32 in 9.0 mi Calm Calm - N/A   Partly Cloudy
10:55 AM 50.0 °F - 39.2 °F 66% 30.33 in 9.0 mi North - - N/A   Clear
11:15 AM 51.8 °F - 39.2 °F 62% 30.33 in 10.0 mi Calm Calm - N/A   Clear
11:35 AM 51.8 °F - 37.4 °F 58% 30.33 in 10.0 mi Calm Calm - N/A   Clear
11:55 AM 51.8 °F - 37.4 °F 58% 30.33 in 10.0 mi North 5.8 mph - N/A   Clear
12:15 PM 50.0 °F - 37.4 °F 62% 30.33 in 10.0 mi North 5.8 mph - N/A   Clear
12:35 PM 50.0 °F - 39.2 °F 66% 30.33 in 10.0 mi North 5.8 mph - N/A   Clear
12:55 PM 51.8 °F - 39.2 °F 62% 30.33 in 10.0 mi North 5.8 mph - N/A   Clear
1:15 PM 51.8 °F - 41.0 °F 67% 30.32 in 10.0 mi NNW 6.9 mph - N/A   Clear
1:35 PM 50.0 °F - 41.0 °F 71% 30.32 in 10.0 mi NNW 5.8 mph - N/A   Clear
1:55 PM 51.8 °F - 41.0 °F 67% 30.32 in 10.0 mi NNW 6.9 mph - N/A   Clear
2:15 PM 51.8 °F - 41.0 °F 67% 30.32 in 10.0 mi NNW 8.1 mph - N/A   Clear
2:35 PM 53.6 °F - 41.0 °F 62% 30.31 in 9.0 mi NNW 6.9 mph - N/A   Clear
2:55 PM 53.6 °F - 41.0 °F 62% 30.31 in 10.0 mi NNW 8.1 mph - N/A   Clear
3:15 PM 53.6 °F - 42.8 °F 67% 30.31 in 9.0 mi NNW 9.2 mph - N/A   Clear
3:35 PM 53.6 °F - 44.6 °F 72% 30.30 in 10.0 mi NNW 9.2 mph - N/A   Clear
3:55 PM 53.6 °F - 42.8 °F 67% 30.30 in 9.0 mi NNW 9.2 mph - N/A   Clear
4:15 PM 53.6 °F - 44.6 °F 72% 30.29 in 9.0 mi NNW 10.4 mph - N/A   Clear
4:35 PM 53.6 °F - 44.6 °F 72% 30.29 in 9.0 mi NNW 6.9 mph - N/A   Clear
4:55 PM 53.6 °F - 42.8 °F 67% 30.29 in 10.0 mi NNW 6.9 mph - N/A   Clear
5:15 PM 51.8 °F - 44.6 °F 76% 30.29 in 10.0 mi NNW 6.9 mph - N/A   Clear
5:55 PM 53.6 °F - 41.0 °F 62% 30.28 in 10.0 mi NNW 5.8 mph - N/A   Clear
6:15 PM 53.6 °F - 42.8 °F 67% 30.28 in 10.0 mi Calm Calm - N/A   Clear
6:35 PM 53.6 °F - 44.6 °F 72% 30.28 in 10.0 mi Calm Calm - N/A   Clear
6:55 PM 53.6 °F - 44.6 °F 72% 30.28 in 10.0 mi Calm Calm - N/A   Clear
7:15 PM 53.6 °F - 41.0 °F 62% 30.27 in 10.0 mi Calm Calm - N/A   Clear
7:35 PM 53.6 °F - 41.0 °F 62% 30.27 in 10.0 mi Calm Calm - N/A   Clear
7:55 PM 50.0 °F - 42.8 °F 76% 30.27 in 9.0 mi Calm Calm - N/A   Clear
8:15 PM 48.2 °F - 41.0 °F 76% 30.27 in 9.0 mi Calm Calm - N/A   Clear
8:35 PM 48.2 °F - 41.0 °F 76% 30.28 in 9.0 mi Calm Calm - N/A   Clear
8:55 PM 46.4 °F - 41.0 °F 81% 30.28 in 9.0 mi Calm Calm - N/A   Clear
9:15 PM 46.4 °F - 39.2 °F 76% 30.29 in 10.0 mi Calm Calm - N/A   Clear
9:35 PM 46.4 °F - 39.2 °F 76% 30.29 in 9.0 mi Calm Calm - N/A   Clear
9:55 PM 44.6 °F - 39.2 °F 81% 30.29 in 10.0 mi Calm Calm - N/A   Clear
10:15 PM 44.6 °F - 39.2 °F 81% 30.29 in 10.0 mi Calm Calm - N/A   Clear
10:35 PM 44.6 °F - 37.4 °F 76% 30.29 in 10.0 mi Calm Calm - N/A   Clear
10:55 PM 42.8 °F - 39.2 °F 87% 30.29 in 9.0 mi Calm Calm - N/A   Clear
11:15 PM 44.6 °F - 39.2 °F 81% 30.29 in 10.0 mi Calm Calm - N/A   Clear
11:35 PM 44.6 °F - 39.2 °F 81% 30.30 in 10.0 mi Calm Calm - N/A   Clear
11:55 PM 42.8 °F - 39.2 °F 87% 30.30 in 10.0 mi Calm Calm - N/A   Clear